Home   Weather   Swakopmund   Past weeks

Flag for Namibia Past Weather in Swakopmund, Namibia — Yesterday and Last 2 Weeks

Now
54 °F

Scattered clouds.


Feels Like: 51 °F
Forecast: 58 / 71 °F
Wind: 9 mph from North

Location: Walvis Bay

Current Time: Aug 17, 2017 at 10:56:37 am

Latest Report: Aug 17, 2017 at 10:00 am


Visibility: N/A

Pressure: 30.07 "Hg

Humidity: 82%

Dew Point: 48 °F

Location of SwakopmundLocation

Past Weather in Swakopmund — Graph

°F

Swakopmund Temperature Yesterday

Maximum temperature yesterday: 70 °F (at 2:00 pm)
Minimum temperature yesterday: 46 °F (at 7:00 am)
Average temperature yesterday: 55 °F

High & Low Weather Summary for the Past Weeks

 TemperatureHumidityPressure
High79 °F (Aug 15, 1:00 pm)100% (Aug 6, 8:00 am)30.18 "Hg (Aug 6, 8:00 am)
Low39 °F (Aug 6, 7:00 am)22% (Aug 11, 6:00 pm)29.98 "Hg (Aug 16, 4:00 pm)
Average55 °F75%30.08 "Hg
* Reported Aug 2 9:00 am — Aug 17 9:00 am, Swakopmund. Weather by CustomWeather, © 2017

Note: Actual official high and low records may vary slightly from our data, if they occured in-between our weather recording intervals... More about our weather records

Advertising

Swakopmund Weather History for the Previous 24 Hours

Scroll right to see more
 ConditionsComfort  
Time TempWeatherWind HumidityBarometerVisibility
9:00 am
Thu, Aug 17
48 °FLow clouds.7 mph94%30.04 "HgN/A
7:00 am45 °FFog.7 mph100%30.04 "Hg0 mi
6:00 am43 °FFog.8 mph93%30.04 "Hg0 mi
5:00 am43 °FQuite cool.6 mph87%30.04 "HgN/A
4:00 am43 °FQuite cool.6 mph87%30.04 "HgN/A
3:00 am45 °FQuite cool.5 mph87%30.04 "HgN/A
2:00 am45 °FQuite cool.3 mph87%30.04 "HgN/A
1:00 am46 °FCool.3 mph82%30.04 "HgN/A
12:00 am48 °FCool.3 mph82%30.04 "HgN/A
11:00 pm
Wed, Aug 16
48 °FCool.5 mph82%30.07 "HgN/A
10:00 pm50 °FCool.3 mph76%30.07 "HgN/A
9:00 pm54 °FCool.6 mph67%30.07 "HgN/A
8:00 pm55 °FCool.12 mph63%30.07 "HgN/A
7:00 pm59 °FRefreshingly cool.12 mph55%30.04 "HgN/A
4:00 pm70 °FMild.15 mph43%29.98 "HgN/A
3:00 pm68 °FSunny.14 mph49%30.01 "Hg10 mi
2:00 pm70 °FSunny.9 mph43%30.01 "Hg10 mi
1:00 pm68 °FSunny.8 mph40%30.04 "Hg10 mi
12:00 pm66 °FSunny.6 mph43%30.07 "Hg10 mi
11:00 am61 °FSunny.2 mph63%30.09 "Hg10 mi
10:00 am54 °FSunny.5 mph88%30.09 "Hg10 mi
Weather by CustomWeather, © 2017

See weather overviewHow to use our weather pages